Fredericksburg, Texas, United States (78624)
Lat: 30.27N, Lon: 98.87W
Wx Zone: TXZ188
Local Info
Past Weather Observations for Today

NOTE: This archive is for the closest National Weather Service station to Fredericksburg. Information may differ from the station used for current weather conditions.

Click here for Long-term Archive

Time Weather Temperature Dewpoint Humidity Pressure Winds Precip Visibility
09:55
Overcast
79°F / 26°C 72°F / 22°C 79% 29.92 in
(1013 mb)
SSE 10.4 mph
(SSE 17 kph)
- 10SM
09:35
Overcast
79°F / 26°C 72°F / 22°C 79% 29.92 in
(1013 mb)
SW 16.1 mph
(SW 26 kph)
- 10SM
09:15
Overcast
77°F / 25°C 72°F / 22°C 83% 29.92 in
(1013 mb)
SW 11.5 mph
(SW 19 kph)
- 10SM
08:55
Overcast
77°F / 25°C 72°F / 22°C 83% 29.92 in
(1013 mb)
SW 13.8 mph
(SW 22 kph)
- 10SM
08:35
Overcast
77°F / 25°C 72°F / 22°C 83% 29.92 in
(1013 mb)
SW 12.7 mph
(SW 20 kph)
- 10SM
08:15
Overcast
77°F / 25°C 72°F / 22°C 83% 29.92 in
(1013 mb)
SW 9.2 mph
(SW 15 kph)
- 10SM
07:55
Overcast
77°F / 25°C 72°F / 22°C 83% 29.92 in
(1013 mb)
S 8.1 mph
(S 13 kph)
- 10SM
07:35
Overcast
75°F / 24°C 72°F / 22°C 89% 29.89 in
(1012 mb)
SSE 9.2 mph
(SSE 15 kph)
- 10SM
07:15
Overcast
75°F / 24°C 72°F / 22°C 89% 29.89 in
(1012 mb)
SSE 6.9 mph
(SSE 11 kph)
- 10SM
06:55
Overcast
75°F / 24°C 72°F / 22°C 89% 29.89 in
(1012 mb)
SW 5.8 mph
(SW 9 kph)
- 10SM
06:35
Overcast
75°F / 24°C 72°F / 22°C 89% 29.89 in
(1012 mb)
SSE 5.8 mph
(SSE 9 kph)
- 10SM
06:15
Mostly Cloudy
73°F / 23°C 72°F / 22°C 94% 29.89 in
(1012 mb)
S 10.4 mph
(S 17 kph)
- 10SM
05:55
Mostly Cloudy
73°F / 23°C 72°F / 22°C 94% 29.89 in
(1012 mb)
SSE 6.9 mph
(SSE 11 kph)
- 10SM
05:35
Mostly Cloudy
73°F / 23°C 72°F / 22°C 94% 29.89 in
(1012 mb)
SSE 9.2 mph
(SSE 15 kph)
- 10SM
05:15
Mostly Cloudy
75°F / 24°C 72°F / 22°C 89% 29.86 in
(1011 mb)
S 6.9 mph
(S 11 kph)
- 10SM
04:55
Overcast
75°F / 24°C 72°F / 22°C 89% 29.86 in
(1011 mb)
SSE 6.9 mph
(SSE 11 kph)
- 10SM
04:35
Overcast
75°F / 24°C 72°F / 22°C 89% 29.86 in
(1011 mb)
S 10.4 mph
(S 17 kph)
- 10SM
04:15
Overcast
75°F / 24°C 72°F / 22°C 89% 29.86 in
(1011 mb)
SW 9.2 mph
(SW 15 kph)
- 10SM
03:55
Overcast
75°F / 24°C 72°F / 22°C 89% 29.86 in
(1011 mb)
SW 8.1 mph
(SW 13 kph)
- 10SM
03:35
Overcast
75°F / 24°C 72°F / 22°C 89% 29.86 in
(1011 mb)
SSE 6.9 mph
(SSE 11 kph)
- 10SM
03:15
Overcast
75°F / 24°C 72°F / 22°C 89% 29.86 in
(1011 mb)
S 5.8 mph
(S 9 kph)
- 10SM
02:55
Overcast
77°F / 25°C 72°F / 22°C 83% 29.86 in
(1011 mb)
S 10.4 mph
(S 17 kph)
- 10SM
02:35
Overcast
75°F / 24°C 72°F / 22°C 89% 29.86 in
(1011 mb)
SSE 6.9 mph
(SSE 11 kph)
- 10SM
02:15
Overcast
75°F / 24°C 72°F / 22°C 89% 29.86 in
(1011 mb)
SSE 5.8 mph
(SSE 9 kph)
- 10SM
01:55
Overcast
75°F / 24°C 72°F / 22°C 89% 29.86 in
(1011 mb)
S 6.9 mph
(S 11 kph)
- 10SM
01:35
Overcast
75°F / 24°C 72°F / 22°C 89% 29.86 in
(1011 mb)
S 8.1 mph
(S 13 kph)
- 10SM
01:15
Overcast
75°F / 24°C 72°F / 22°C 89% 29.86 in
(1011 mb)
SSE 5.8 mph
(SSE 9 kph)
- 10SM
00:55
Mostly Cloudy
75°F / 24°C 72°F / 22°C 89% 29.86 in
(1011 mb)
S 4.6 mph
(S 7 kph)
- 10SM
00:35
Partly Cloudy
73°F / 23°C 70°F / 21°C 89% 29.86 in
(1011 mb)
SSE 5.8 mph
(SSE 9 kph)
- 10SM
00:15
Partly Cloudy
73°F / 23°C 68°F / 20°C 83% 29.86 in
(1011 mb)
S 4.6 mph
(S 7 kph)
- 10SM
Time Weather Temperature Dewpoint Humidity Pressure Winds Precip Visibility


Weather for websites

WeatherForYou.com, LLC is not responsible for any damages or problems caused by this service. Current weather conditions are obtained from the closest station including government and personal stations which may have varying degrees of accuracy. Weather forecasts are derived from the NOAA NDFD. Like all things, this site belongs to Jesus Christ... He just trusts me to maintain it. If you have any questions or comments email webmaster@weatherforyou.com

Copyright © 2014, WeatherForYou.com LLC. All rights reserved.